MEASAT-3B

Last updated on Fri Nov 07 2025 00:02:49 GMT+0000 (Coordinated Universal Time)

1 40147U 14054B 25310.21642150 -.00000231 00000+0 00000+0 0 9997 2 40147 0.0508 56.6601 0000436 218.1016 300.3194 1.00267355 40673
UTC large
Height (km)
Speed (km/s)
/
Latitude / Longitude
Inclination (degrees)
Orbital Period (minutes)
Azimuth
Elevation
Range (km)
Doppler Factor

Next 0 passes for location: London (51.5072 / 0.1276)

Sorry there are no passes over London.